GFSNW_con_lsi_000.txt.gz
Lid_Strength_Index
-1 -1 -1 -1 -0 1 1 4 8 0 0 9 8 11 10 9 10 9 9 8 8 9 8 9 8 9 7 6 6 8 6 7 10 9 6 5 6 7 8 11 12 10 10 10
-1 -1 -1 -1 -1 0 3 5 5 -0 2 11 11 7 8 7 9 10 10 10 8 7 8 9 8 8 6 6 6 7 6 8 11 10 9 6 8 7 7 7 8 11 12 10
-1 -1 -1 -1 -1 -0 1 4 9 6 5 6 7 8 9 10 7 9 10 10 9 9 8 7 8 8 7 6 6 6 5 7 9 12 10 8 9 8 7 8 11 10 10 9
-1 -1 -1 -1 -1 -1 1 3 7 6 10 9 8 8 8 10 10 7 8 10 9 8 9 9 8 7 7 6 5 5 6 9 8 8 7 7 8 8 8 9 8 10 9 8
-1 -1 -1 -1 -1 -1 2 7 8 6 7 7 8 8 9 9 8 8 8 9 9 7 9 7 8 7 7 7 6 6 6 9 8 9 8 8 9 8 8 8 8 8 8 8
-1 -1 -1 -1 -1 -1 3 3 3 6 8 9 10 10 9 8 7 6 6 7 8 9 7 7 6 5 6 6 6 7 7 8 9 11 8 8 11 8 8 7 7 7 9 7
-1 -1 -1 -1 -1 -1 1 2 3 7 9 8 8 7 7 8 8 8 6 5 8 7 5 5 5 6 7 7 7 5 8 8 9 10 9 14 8 6 6 7 6 6 6 5
-1 -1 -1 -1 -1 -1 0 1 3 5 9 7 7 7 7 7 7 8 7 5 4 5 6 7 9 9 8 8 7 7 6 8 10 12 12 9 8 7 7 7 8 5 6 5
-1 -1 -1 -1 -1 -1 -0 1 0 3 8 7 7 8 7 8 9 9 7 4 3 4 8 10 12 13 10 10 9 7 7 7 9 10 14 15 8 6 5 5 9 5 5 5
-1 -1 -1 -1 -1 -1 -0 1 -1 3 8 4 5 8 9 6 7 8 6 5 6 4 9 14 14 12 8 11 11 11 10 9 11 12 13 10 7 5 5 11 8 4 4 4
-1 -1 -1 -1 -1 -1 -0 0 -1 2 6 5 4 5 8 7 7 9 6 7 6 7 10 11 12 12 9 9 8 9 10 11 11 10 12 13 5 6 8 5 5 4 4 4
-1 -1 -1 -1 -1 -1 -1 3 -0 -0 4 4 2 2 2 3 3 5 5 6 6 5 8 9 9 11 9 9 11 7 10 8 9 9 9 6 5 5 4 3 4 4 4 4
-1 -1 -1 -0 -1 -1 -1 0 -1 2 4 4 4 4 2 1 1 0 6 4 5 5 4 7 7 10 9 12 10 8 7 6 8 8 6 6 5 4 4 3 4 3 3 3
-1 -1 -1 -1 -0 -1 -1 0 -0 1 3 7 5 1 2 0 0 1 1 3 2 3 4 7 7 9 6 9 8 8 7 6 7 7 6 5 4 4 3 4 3 3 3 3
-0 -0 -0 -1 -1 -1 -1 -1 -1 -1 4 8 6 2 2 1 1 2 2 3 4 5 6 8 9 6 7 6 7 8 6 7 8 9 5 5 5 3 3 4 4 3 3 3
-0 -0 -1 -0 -0 -0 0 3 -1 -1 0 5 9 3 3 2 2 3 3 3 4 4 6 7 6 4 7 9 10 6 5 4 4 6 5 5 4 4 3 3 3 3 3 3
-0 -0 -0 -1 -0 -0 3 4 1 0 -1 5 8 8 3 3 3 4 4 3 4 5 6 6 6 6 6 8 10 6 5 4 4 4 4 5 4 4 3 3 3 3 3 2
-0 -0 -0 -0 0 1 2 -0 -0 -1 2 4 10 9 7 3 7 7 4 5 5 5 6 5 7 5 7 10 6 5 4 4 4 4 4 4 4 3 4 3 3 3 4 3
-0 1 1 0 1 2 1 -0 -0 -1 2 7 8 11 12 3 6 6 5 5 9 4 8 7 7 8 10 7 6 5 5 5 5 4 5 4 4 4 4 3 3 3 3 3
1 0 2 4 1 0 -0 2 4 4 4 4 8 6 10 7 8 8 8 7 9 12 8 5 8 9 5 4 4 4 4 4 4 5 6 5 4 4 4 4 3 3 3 3
1 4 4 1 -0 1 3 7 7 6 8 6 6 7 9 5 10 10 7 10 8 13 10 9 9 9 6 4 4 4 4 3 4 4 4 3 4 4 4 4 3 3 3 3
2 2 1 1 3 4 8 8 7 8 9 6 7 7 7 7 7 10 9 11 10 14 7 10 11 7 6 5 5 4 4 4 4 4 4 4 4 3 3 3 3 3 2 2
0 3 5 5 5 11 11 13 9 10 7 6 7 9 7 6 7 9 10 13 13 10 13 12 10 7 6 6 5 4 4 4 4 4 3 3 3 3 3 3 3 2 3 2
4 6 11 10 11 10 10 10 9 7 6 6 6 7 7 6 9 9 13 11 11 14 15 15 10 8 7 6 5 5 5 4 4 4 4 3 3 4 3 3 3 3 4 3
6 6 11 10 7 7 6 6 6 5 4 6 7 7 7 8 10 9 11 13 15 14 14 11 8 7 6 6 6 5 5 5 5 5 4 4 4 4 4 3 3 3 3 3
4 5 7 6 7 7 6 5 6 4 4 5 5 9 10 11 11 12 13 14 15 14 10 8 7 7 7 6 6 6 6 7 7 6 4 4 5 4 4 4 3 3 3 3
5 6 4 5 5 6 5 5 5 3 5 8 8 11 12 9 12 13 12 13 13 10 8 6 5 5 5 5 5 6 6 6 6 6 6 6 5 4 4 5 4 3 3 2

GFSNW_con_lsi_003.txt.gz
Lid_Strength_Index
-1 -1 -1 -1 -1 -0 1 4 9 0 0 9 9 11 8 6 8 6 8 8 9 9 7 8 8 8 7 5 5 7 6 7 10 8 6 5 6 7 7 11 12 10 10 10
-1 -1 -1 -1 -1 -0 1 5 5 0 1 12 10 7 7 6 7 8 8 9 8 7 8 10 7 7 5 5 5 6 6 8 11 10 8 6 8 7 7 7 8 10 12 10
-1 -1 -1 -1 -1 -0 0 5 10 5 5 6 9 9 8 8 6 6 7 8 8 9 9 7 8 7 5 5 5 5 5 7 9 11 10 8 9 8 7 8 11 10 10 9
-1 -1 -1 -1 -1 -1 1 4 7 5 10 8 7 8 8 9 8 6 5 7 8 9 9 8 8 7 6 5 5 5 6 9 8 8 7 7 8 8 8 8 8 10 9 8
-1 -1 -1 -1 -1 -1 2 7 6 4 7 6 7 8 9 9 8 7 8 8 8 8 9 8 9 7 7 7 5 6 6 10 8 9 7 7 8 8 7 7 8 8 8 8
-1 -1 -1 -1 -1 -0 3 2 2 5 8 7 8 9 8 8 6 6 6 6 7 9 8 8 7 6 6 6 6 7 7 8 10 11 8 8 10 8 8 7 7 7 9 7
-1 -1 -1 -1 -1 0 1 1 2 7 9 9 8 7 6 8 7 8 6 5 6 6 5 5 5 6 6 5 5 5 8 9 8 10 9 14 8 5 6 7 6 6 6 5
-1 -1 -1 -1 -1 -1 1 0 3 6 9 7 7 6 7 6 6 7 6 5 4 4 6 9 9 9 8 7 6 6 6 8 10 12 12 9 8 7 7 7 8 5 6 5
-1 -1 -1 -1 -1 -1 -0 0 1 3 8 7 5 7 6 8 8 7 6 3 2 5 8 10 15 14 10 10 8 6 6 7 9 10 13 13 8 6 4 5 9 5 5 5
-1 -1 -1 -1 -1 -1 -0 0 -0 3 7 4 4 8 8 6 7 8 6 5 5 4 8 14 14 13 8 12 11 10 10 10 11 10 12 9 6 5 4 10 8 4 4 4
-1 -1 -1 -1 -1 -1 -0 1 -1 2 5 4 3 4 7 6 7 10 6 6 6 7 9 12 12 12 10 10 8 9 10 11 11 10 11 12 5 5 8 5 4 4 4 4
-1 -1 -1 -1 -1 -1 -1 2 -1 -1 4 4 1 1 2 2 4 6 6 7 8 6 7 7 9 12 10 12 13 7 10 8 9 8 9 5 4 4 3 3 4 4 3 3
-1 -1 -1 -1 -1 -1 -1 1 0 1 4 4 3 4 2 0 1 1 7 6 5 5 4 7 7 10 9 12 11 10 7 5 8 8 6 6 4 3 3 3 3 3 3 3
-1 -1 -1 -1 -1 -1 -1 1 -0 1 3 7 5 0 2 0 0 1 1 3 2 3 4 7 8 9 7 10 9 9 8 7 7 7 6 5 4 4 4 3 3 3 3 3
-0 -0 -0 -1 -1 -1 -1 -0 -1 -1 4 7 5 2 1 1 1 2 1 2 3 4 6 7 8 6 7 8 8 10 8 8 9 8 5 5 5 3 3 4 4 3 3 3
-0 -0 -1 -1 -1 -1 1 4 0 -1 -0 5 8 2 3 2 2 2 3 3 3 4 5 6 5 4 7 10 10 8 7 6 5 6 4 5 4 3 3 4 3 3 3 3
-1 -0 -0 -0 -1 -0 3 4 1 -0 -1 5 8 7 4 3 3 3 3 2 4 4 5 6 6 6 6 8 11 6 6 6 5 3 4 5 4 4 3 3 3 3 2 2
-0 -0 0 -0 -1 -0 2 -0 -1 -1 3 3 9 8 6 3 5 6 4 5 5 5 5 5 6 5 6 10 6 6 5 5 5 4 3 3 3 3 3 3 3 3 3 3
-0 -0 1 -1 1 3 2 -1 -0 -1 3 7 6 10 12 4 6 6 6 5 9 4 7 7 6 7 9 6 6 6 4 5 5 4 3 3 4 4 3 3 3 3 3 3
-0 -0 2 5 2 0 -1 2 4 4 4 4 7 5 10 6 7 8 7 6 9 10 7 5 8 9 5 4 4 4 4 4 3 5 5 4 4 4 4 3 3 3 3 3
1 3 4 1 -1 1 3 6 7 6 8 5 5 6 9 5 10 10 7 10 8 12 9 9 9 9 6 4 4 3 3 3 3 3 3 3 3 3 3 3 3 3 2 3
1 2 1 1 3 4 7 8 6 7 9 6 7 6 6 6 7 10 9 11 9 13 7 10 11 7 5 4 4 3 3 3 3 3 3 3 3 3 3 3 3 2 2 2
-0 3 5 5 5 11 10 12 9 9 6 5 6 8 6 6 7 10 11 12 13 9 13 12 9 7 6 5 4 3 3 3 3 3 3 3 3 2 3 3 2 2 2 2
3 6 11 8 9 8 8 9 9 6 6 6 7 7 8 7 9 9 12 10 11 14 15 14 10 8 7 5 4 5 5 4 4 4 4 3 3 3 3 2 2 2 3 2
5 5 11 9 6 5 5 5 6 5 5 6 6 6 7 9 10 10 11 13 14 13 14 11 10 7 7 6 6 5 6 5 5 4 4 3 3 3 3 3 3 3 3 3
4 5 7 5 6 6 5 5 6 4 4 4 5 8 10 11 11 12 13 14 14 13 12 8 8 7 8 7 6 6 6 6 5 5 4 4 4 4 4 3 3 3 3 3
5 6 4 5 5 6 5 5 5 3 5 8 7 11 12 9 12 13 11 13 13 12 8 6 6 6 6 6 6 7 7 7 6 5 5 4 3 3 3 4 3 3 2 2

GFSNW_con_lsi_006.txt.gz
Lid_Strength_Index
-1 -1 -1 -1 -1 -1 0 3 9 1 0 8 8 11 8 6 6 5 9 9 11 11 10 11 10 9 7 5 5 8 6 8 11 9 6 6 7 8 8 11 13 10 11 11
-1 -1 -1 -1 -1 -0 1 6 6 0 2 12 11 8 8 7 7 7 10 10 10 10 11 12 9 8 5 5 6 7 6 9 12 11 8 7 8 7 7 8 9 12 13 11
-1 -1 -1 -1 -1 -1 1 5 10 5 5 5 8 9 9 9 6 7 8 9 10 10 12 10 11 8 6 5 5 5 6 8 10 13 10 8 10 8 8 8 12 11 10 9
-1 -1 -1 -1 -1 -1 1 4 7 5 9 8 8 8 8 9 10 6 6 9 10 11 12 11 11 9 10 7 5 6 7 10 9 8 8 8 8 8 8 9 9 11 9 9
-1 -1 -1 -1 -1 -1 2 7 7 5 7 6 8 8 9 8 8 7 8 9 9 10 12 11 12 11 10 10 8 7 7 10 9 9 8 8 9 8 8 8 8 8 8 9
-1 -1 -1 -1 -1 -1 3 2 2 5 7 7 9 9 8 8 7 6 6 7 9 11 11 9 9 9 9 8 9 10 8 9 10 12 8 9 11 9 8 8 7 7 9 7
-1 -1 -1 -1 -1 -1 1 2 3 7 9 8 10 8 7 8 7 8 6 5 8 8 6 8 8 9 9 8 7 7 10 10 9 12 10 15 8 6 6 7 7 6 6 6
-1 -1 -1 -1 -1 -1 1 1 3 7 10 7 7 7 7 6 6 6 6 5 4 4 7 11 12 11 10 9 7 7 7 9 11 13 13 10 8 7 7 8 8 6 6 6
-1 -1 -1 -1 -1 -1 0 0 1 4 8 7 6 7 6 8 8 7 6 4 3 4 7 11 15 16 11 11 9 6 7 7 10 12 14 15 9 6 5 5 10 5 5 5
-1 -1 -1 -1 -1 -1 -0 1 -1 3 7 5 5 8 8 6 7 9 7 7 5 5 9 13 14 15 10 14 12 11 10 10 12 12 13 10 6 5 5 11 9 5 5 5
-1 -1 -1 -1 -1 -1 -0 1 -1 3 6 5 3 3 6 6 7 11 8 8 7 7 10 11 12 14 12 13 11 12 11 12 12 11 13 13 5 6 8 6 4 4 5 4
-1 -1 -1 -1 -1 -1 -1 2 -1 -0 4 5 2 2 2 3 4 6 6 8 8 8 9 8 9 11 11 13 15 8 13 10 11 10 10 5 5 5 5 4 5 4 4 4
-0 -1 -1 -1 -1 -1 -1 1 0 1 4 4 4 5 2 1 1 1 7 6 5 6 5 8 9 12 9 14 12 12 8 7 10 10 7 6 5 4 4 3 4 3 3 3
-0 -1 -1 -1 -1 -1 -1 1 -0 1 4 8 5 1 3 0 1 1 2 3 3 4 4 7 9 11 7 11 10 11 9 8 9 9 7 6 5 5 4 4 3 3 3 3
-1 -1 -1 -0 -1 -1 -1 -0 -1 -0 4 8 6 2 1 1 1 2 2 3 4 5 6 8 9 7 8 8 8 11 9 9 11 10 7 8 6 5 5 4 4 4 3 3
-0 -1 -0 -0 -0 -1 1 4 -0 -1 -0 6 9 3 3 2 2 2 3 3 4 4 6 6 5 5 8 10 10 8 8 7 7 8 6 6 6 4 4 5 4 4 5 3
-0 -0 -0 -0 -0 -0 3 4 1 1 -0 6 8 7 4 2 3 3 4 3 4 5 6 6 6 6 6 8 11 7 7 6 7 7 8 7 6 5 4 4 3 4 4 4
-0 -0 -0 -0 -0 0 2 -1 -1 -0 2 4 9 8 6 3 6 7 4 5 5 5 6 6 6 6 6 10 7 7 7 7 7 7 7 6 5 4 4 3 3 4 5 4
0 -0 -1 -0 1 3 1 -0 -1 -1 3 8 8 10 12 4 6 5 5 5 9 5 7 7 6 8 10 7 6 7 7 7 8 7 7 7 7 5 5 4 4 4 4 3
0 0 3 5 2 -0 -1 2 4 4 4 4 7 5 10 6 7 8 8 7 9 10 7 5 8 9 6 5 4 4 4 5 6 8 7 7 6 5 5 5 5 4 4 4
0 3 4 1 -1 1 3 6 7 6 8 6 6 6 9 5 10 10 8 10 9 12 9 9 9 9 6 4 4 4 4 4 5 5 5 5 5 5 5 5 5 5 4 3
2 2 0 1 3 4 7 8 6 8 9 6 7 7 6 6 5 9 9 11 10 13 8 11 12 9 7 6 5 4 3 3 4 5 5 5 5 5 5 5 4 4 3 3
0 3 5 5 5 11 11 12 11 11 7 6 7 8 7 6 6 10 10 12 13 9 12 12 11 8 7 6 5 4 3 3 3 4 4 4 4 4 4 4 3 3 3 2
4 6 11 8 10 10 10 10 8 7 7 6 6 8 8 7 9 9 12 11 10 14 15 14 10 10 8 6 5 5 5 5 4 3 3 4 4 4 3 3 2 3 3 3
5 5 11 9 6 6 5 4 5 4 4 5 6 6 7 8 10 10 11 12 14 13 14 11 11 10 9 8 7 6 6 5 5 4 4 4 3 3 3 2 2 2 2 3
4 5 8 6 6 6 5 5 5 4 4 4 5 8 9 10 11 12 13 14 14 13 12 10 7 9 8 8 8 7 6 6 5 4 4 4 4 4 3 3 3 3 2 3
5 6 4 5 5 6 5 4 4 3 5 7 7 10 11 8 11 13 12 12 12 10 8 6 5 6 6 6 6 6 6 7 5 5 4 4 3 4 4 5 4 3 3 3

GFSNW_con_lsi_009.txt.gz
Lid_Strength_Index
-1 -1 -1 -1 -1 -0 0 4 9 2 1 9 8 11 9 7 7 6 7 10 12 14 13 14 13 13 10 7 7 10 9 11 12 11 8 7 8 10 11 13 15 13 14 14
-0 -0 -1 -1 -1 -1 2 6 7 2 2 12 11 9 8 7 8 8 8 9 10 11 13 15 13 11 8 7 9 9 8 11 15 13 11 9 9 9 10 11 12 14 15 14
-0 -1 -1 -1 -1 -1 1 6 10 7 5 6 9 10 10 10 6 7 7 8 8 11 13 12 13 12 9 8 8 7 6 11 12 15 12 10 10 9 9 11 14 13 12 12
-0 -1 -1 -1 -1 -1 1 5 9 7 11 10 9 9 9 10 10 7 7 10 9 11 14 14 14 12 11 9 7 9 9 12 10 10 10 10 9 9 9 10 11 12 11 11
-0 -1 -1 -1 -1 -1 3 7 8 6 8 7 9 9 10 10 9 8 9 10 9 9 12 13 14 13 13 13 11 12 11 11 10 11 9 10 10 9 9 9 9 10 10 10
-0 -1 -1 -1 -1 -1 3 3 3 6 8 9 10 10 9 9 8 7 7 7 8 9 9 9 10 11 11 12 13 13 12 13 11 13 10 11 13 10 9 9 9 9 11 10
-0 -1 -1 -1 -1 -1 1 2 3 7 10 9 9 8 9 9 8 9 7 6 8 6 5 7 10 12 11 11 12 11 13 12 12 12 12 16 11 8 8 9 8 8 9 8
-1 -1 -1 -1 -1 -1 1 1 4 6 10 8 8 8 8 7 7 8 7 6 5 5 7 11 13 15 13 12 11 11 11 12 15 14 14 12 10 9 9 10 10 7 8 7
-1 -1 -1 -1 -1 -1 1 1 1 5 8 9 6 8 7 10 9 9 8 5 4 6 8 11 15 17 15 15 12 9 9 9 13 14 16 16 11 8 7 8 11 7 7 8
-0 -1 -1 -1 -1 -1 0 1 0 4 8 6 6 9 9 7 8 10 8 8 8 7 11 14 15 16 13 16 16 13 12 12 15 15 15 13 8 7 7 12 11 7 7 7
-0 -1 -1 -1 -1 -1 0 1 -0 3 6 6 4 4 7 7 7 10 8 9 9 10 12 13 13 15 14 15 13 13 14 15 15 14 16 16 7 8 11 9 8 6 6 6
-0 -1 -1 -1 -1 -1 -1 3 0 -0 4 5 3 3 2 3 4 6 7 8 8 8 11 11 11 13 12 14 17 11 15 13 15 14 12 8 7 7 6 6 6 6 6 6
-0 -1 -1 -1 -0 -1 -1 2 1 2 5 5 5 5 2 1 2 2 8 7 6 7 6 9 10 13 11 15 15 14 11 10 12 12 10 9 7 7 7 5 6 6 5 5
-0 -0 -1 -1 -1 -1 -1 2 1 2 4 8 7 1 3 1 1 2 3 4 4 5 6 9 10 12 8 12 12 13 12 11 11 11 10 9 8 8 7 6 6 5 5 5
-0 -1 -1 -1 -0 -0 -0 1 0 0 5 9 7 4 2 2 2 3 3 4 5 6 8 9 10 8 9 9 11 13 10 12 12 13 10 10 10 9 7 6 6 6 5 5
-0 -1 -1 -1 -0 -1 1 4 1 -0 1 6 10 4 4 3 3 3 4 4 5 6 8 8 7 6 9 12 12 10 8 8 8 11 8 8 8 7 7 8 5 5 5 5
-0 -0 -0 -1 -1 1 3 5 2 1 1 6 9 9 4 3 4 5 5 4 5 6 7 8 8 8 8 10 12 8 9 8 8 8 8 9 8 9 8 8 4 5 4 4
0 -0 -0 -1 0 1 3 1 -0 1 3 4 10 10 8 4 7 8 5 7 6 7 7 7 8 8 8 11 9 8 7 9 8 8 7 7 8 8 8 8 7 5 6 5
0 0 0 1 2 4 3 -0 0 1 4 8 8 11 12 5 7 6 7 6 10 6 9 9 8 10 12 9 8 7 7 8 8 8 8 7 9 8 8 8 8 7 6 6
0 1 3 6 3 -1 -0 2 5 5 5 5 8 7 10 7 8 9 9 8 10 12 9 7 9 10 7 6 6 6 6 6 7 10 8 9 8 7 8 8 7 6 5 6
2 4 5 2 -1 2 5 8 8 8 9 7 7 7 9 5 10 10 8 10 10 14 11 11 12 12 9 6 6 5 5 5 7 7 7 7 8 8 7 7 6 6 6 6
3 4 2 2 4 6 8 10 8 9 11 7 8 8 7 7 6 9 9 12 10 14 9 12 14 10 8 7 7 6 5 5 5 6 6 5 6 6 6 6 7 6 6 6
1 3 5 6 7 11 12 13 12 11 8 7 7 9 7 7 8 10 11 13 13 9 12 14 11 9 9 9 7 5 5 5 5 5 5 5 5 6 6 6 6 6 6 6
5 7 10 10 11 10 10 10 9 7 7 7 7 8 9 8 9 10 12 10 11 14 15 14 11 10 9 9 7 7 6 5 5 5 5 5 5 5 6 6 5 6 7 6
6 6 11 10 7 6 6 6 6 5 5 6 7 7 8 9 10 10 11 12 14 13 14 12 10 9 9 8 8 7 6 5 5 5 5 5 4 4 5 5 6 6 5 6
4 5 8 7 7 7 6 6 6 4 5 5 6 9 10 11 11 12 13 14 15 12 12 10 8 7 8 7 7 6 6 5 5 4 4 4 4 5 5 4 4 5 5 4
5 8 5 6 6 7 6 5 5 4 6 9 8 11 12 9 12 13 11 12 11 9 7 6 6 6 6 5 6 5 6 6 5 5 5 4 4 4 4 5 4 4 4 3

GFSNW_con_lsi_015.txt.gz
Lid_Strength_Index
-0 -0 -0 -1 -1 -0 2 7 10 4 1 9 8 11 9 7 8 6 8 8 10 12 12 14 15 15 13 10 10 13 12 14 15 13 11 9 10 12 12 15 16 14 15 14
-0 -0 -0 -1 -1 -1 2 7 8 3 3 12 11 9 9 8 9 8 9 9 8 9 12 15 14 12 10 10 12 13 12 15 16 16 13 11 12 12 11 13 14 15 15 14
-0 -0 -1 -1 -1 -1 4 6 10 8 6 7 10 11 10 11 7 8 8 9 8 9 12 11 14 13 12 11 11 9 11 15 15 16 15 12 14 12 12 12 15 14 14 14
-1 -1 -1 -1 -1 -1 5 8 10 7 12 11 10 9 10 11 11 8 8 9 9 10 13 13 14 12 12 11 10 12 14 17 14 12 11 12 12 12 11 12 12 13 12 12
-1 -1 -1 -1 -1 0 6 7 8 6 8 9 10 10 10 11 10 10 10 10 9 9 12 11 13 12 12 13 12 13 14 17 14 13 11 12 13 11 11 11 11 11 11 12
-0 -1 -1 -1 -1 1 7 6 3 6 8 10 12 11 10 10 9 8 7 8 9 10 9 7 7 9 10 11 13 14 15 16 17 16 12 13 15 12 12 11 10 10 12 11
0 -0 -1 -1 -1 1 4 6 4 7 11 9 9 8 8 9 9 10 8 7 9 7 5 5 6 8 10 10 11 12 15 16 16 18 14 18 13 10 10 11 9 9 10 10
1 0 -0 -1 -1 -1 2 4 4 6 10 8 8 8 8 8 8 9 8 7 6 6 7 10 12 12 13 13 12 12 13 16 18 18 17 14 12 10 11 12 12 9 9 10
1 0 -0 -1 -1 -1 3 5 5 5 9 10 7 9 8 10 10 9 8 6 5 7 9 11 15 16 14 15 12 9 11 13 16 16 18 18 13 10 8 9 13 9 9 10
0 0 -0 -1 -1 -1 2 2 4 4 8 6 6 9 9 7 8 10 9 8 8 7 11 16 15 15 11 16 16 15 15 16 17 17 17 15 10 8 7 14 14 9 8 9
0 -0 -1 -1 -1 -1 1 2 3 3 6 5 4 5 7 7 7 10 8 9 8 10 13 13 14 14 13 14 14 15 15 16 16 15 17 19 9 9 13 11 9 9 8 8
0 -0 -0 -1 -1 -1 -0 4 2 1 4 5 3 4 3 4 5 7 7 9 8 8 11 11 11 13 12 13 16 12 15 14 14 13 14 10 9 10 9 10 10 10 10 7
0 0 -0 -1 -1 -1 -1 2 2 3 5 6 8 7 5 3 3 3 8 8 7 7 6 9 10 13 11 15 14 14 12 11 13 13 10 11 10 9 10 10 10 9 9 6
1 0 -0 -0 -1 -1 -0 3 3 3 4 9 9 5 6 3 3 4 4 6 6 6 7 9 10 12 9 12 11 12 11 11 14 13 11 11 9 11 11 10 9 9 8 6
1 0 0 0 1 -0 2 4 4 4 7 11 10 7 5 4 4 4 4 6 8 8 9 10 11 9 9 9 9 11 9 13 14 15 11 12 11 10 10 10 10 9 9 7
1 0 0 0 0 1 6 8 5 5 5 8 13 8 6 5 3 4 4 6 6 6 8 9 9 8 8 11 12 9 9 9 10 11 9 9 9 9 8 9 10 8 8 7
1 1 1 0 1 5 7 8 6 3 5 8 10 10 6 5 4 5 5 5 7 8 8 9 9 9 8 10 13 9 8 8 9 9 9 10 10 11 9 9 9 8 7 7
2 2 0 1 1 3 6 5 3 4 7 7 10 11 10 5 7 8 6 7 9 9 9 9 10 9 9 12 8 8 9 9 8 9 8 9 9 9 8 8 9 8 8 7
2 1 1 4 6 7 6 1 3 5 8 11 10 12 12 6 7 6 8 8 11 8 9 9 9 11 12 9 8 9 9 9 9 7 9 9 9 9 9 9 9 9 9 7
2 4 6 8 5 1 2 6 7 7 7 7 10 8 11 8 8 9 9 9 11 12 10 8 10 11 7 7 6 6 7 7 7 10 10 8 10 9 9 9 8 8 8 8
8 9 8 6 3 5 7 10 11 10 10 7 8 8 9 6 10 10 9 11 11 15 11 11 12 12 9 6 6 6 6 6 7 8 8 8 9 9 9 9 8 8 7 8
9 6 5 6 7 9 10 13 11 11 12 9 10 9 9 7 8 11 10 12 13 14 9 12 14 10 7 7 7 7 6 7 8 8 8 7 8 8 9 9 9 8 7 8
6 7 8 10 10 14 12 14 13 11 10 9 9 11 9 9 9 10 11 14 14 11 15 13 11 8 7 7 6 6 6 6 6 6 7 7 8 7 7 8 8 7 7 7
10 11 16 14 14 13 12 12 11 9 9 9 9 10 11 11 12 10 15 14 14 14 15 14 10 9 8 7 6 6 5 5 6 6 6 7 7 7 6 6 7 7 8 7
10 13 17 15 11 10 9 8 9 8 8 9 10 10 10 13 12 10 14 15 20 16 14 11 9 8 8 7 6 6 6 5 5 5 6 7 7 7 8 7 7 6 7 7
9 11 14 12 12 11 10 10 10 8 9 8 9 12 12 13 11 15 14 14 15 13 11 8 8 8 8 7 6 6 5 5 5 4 5 5 6 7 7 7 6 6 6 5
10 13 11 12 12 12 11 10 9 8 9 10 10 12 12 12 15 14 11 12 11 9 8 8 8 8 7 6 6 5 5 6 5 5 4 4 4 5 6 6 5 5 5 6

GFSNW_con_lsi_021.txt.gz
Lid_Strength_Index
2 1 -0 -1 -1 -0 1 4 8 2 0 8 8 11 9 7 8 6 8 8 9 10 10 11 12 12 11 9 9 12 10 11 13 12 9 8 9 10 10 14 15 12 13 13
2 1 -0 -1 -1 -0 2 6 7 2 2 11 10 8 8 7 8 8 9 9 8 8 10 12 10 10 8 9 10 11 10 12 14 13 11 9 10 10 9 9 10 13 14 12
2 1 0 -1 -1 -1 2 5 9 5 4 5 9 10 9 10 6 8 8 8 7 9 10 8 11 11 9 8 9 9 9 12 13 14 13 11 12 11 10 10 13 13 13 11
1 1 1 -0 -1 -0 2 6 8 7 10 8 8 8 9 10 10 7 7 9 9 11 12 11 13 11 10 9 8 9 10 14 13 13 13 12 11 11 11 12 11 13 12 11
1 1 1 0 -0 1 3 7 7 6 8 7 8 8 9 10 9 9 9 10 9 9 11 10 12 11 11 12 9 10 10 13 13 13 12 11 12 11 10 11 10 10 9 10
2 1 1 0 -0 0 5 5 4 6 8 9 10 9 10 10 8 7 7 8 9 10 8 7 7 7 7 8 10 11 11 12 13 14 13 12 13 11 10 10 10 10 11 9
2 2 1 -0 -0 -0 2 3 4 7 10 9 9 8 8 9 9 10 7 7 9 6 4 5 5 6 7 8 8 8 11 12 13 14 13 16 10 8 8 9 9 8 8 8
2 2 1 0 -0 -1 2 2 4 6 10 8 8 8 8 8 7 8 8 6 5 4 6 10 11 11 11 10 9 9 9 11 13 15 15 12 11 10 10 9 10 9 9 8
2 2 1 0 -0 -0 1 1 2 4 8 8 7 8 8 10 10 8 7 5 4 5 9 11 14 14 12 13 12 9 9 10 13 13 16 16 13 9 8 8 12 8 8 8
2 2 1 1 0 -0 1 2 2 5 8 7 7 9 9 7 8 10 8 7 8 6 11 13 13 13 10 14 16 15 13 13 15 14 15 13 9 8 7 14 12 8 8 8
2 2 1 1 0 -0 1 2 2 4 7 7 6 6 7 7 7 10 8 8 8 9 12 13 13 14 12 13 12 14 15 15 15 14 15 17 7 9 11 9 8 8 7 7
2 2 2 1 1 0 1 4 3 2 6 7 4 5 4 5 5 7 7 8 8 8 11 11 11 13 12 13 15 10 14 12 14 13 13 9 8 9 7 7 8 8 7 7
2 2 2 1 1 1 1 3 3 4 7 7 6 6 4 3 4 3 8 6 5 6 5 9 10 13 11 14 14 13 10 9 12 12 10 10 9 8 8 7 7 7 7 7
3 2 2 2 1 1 2 3 3 5 7 10 8 4 5 3 3 4 4 5 4 4 5 8 9 12 8 12 11 12 10 9 11 11 10 10 8 9 8 8 7 7 6 7
4 3 2 2 2 2 2 3 3 3 6 9 8 5 4 3 2 3 3 4 5 6 8 8 9 8 9 8 9 11 9 10 11 12 10 11 10 8 8 8 8 8 8 8
5 4 3 2 2 2 4 6 4 4 5 8 10 5 6 4 3 3 4 4 5 5 7 7 6 6 8 10 11 9 8 8 8 9 8 8 8 8 7 8 8 7 8 7
5 5 3 2 1 3 5 6 5 4 4 8 10 9 6 5 4 4 4 4 4 5 6 7 7 7 7 8 11 8 8 8 8 8 7 8 8 9 7 7 7 7 7 7
6 6 4 2 2 3 4 3 3 3 5 6 11 9 7 5 7 7 4 6 5 6 6 6 8 7 7 10 8 7 7 8 8 8 7 8 7 8 7 7 7 8 8 8
6 5 4 5 5 5 4 2 2 3 6 8 9 11 12 5 6 6 6 6 9 6 9 9 8 10 12 9 8 8 8 9 8 8 8 8 8 7 7 8 7 8 8 8
6 6 7 9 7 3 2 4 6 6 6 7 9 7 10 7 7 8 8 8 10 11 9 7 10 11 7 7 7 6 6 6 7 8 10 9 9 8 8 8 7 7 7 8
9 11 9 8 6 6 6 7 8 7 9 6 7 7 9 6 9 10 8 9 10 12 10 11 12 12 9 6 6 5 5 5 5 6 7 8 8 8 8 8 8 7 6 7
9 9 8 8 8 10 11 10 9 9 9 7 8 7 6 6 6 8 8 11 10 14 8 11 13 10 6 6 6 5 5 5 5 5 6 6 7 7 7 7 7 7 6 6
7 9 10 10 10 13 13 14 10 10 7 6 6 8 6 7 7 9 9 12 12 9 11 12 10 7 6 6 6 6 5 4 4 5 5 5 5 5 6 6 6 6 6 6
10 10 13 12 13 12 11 11 10 7 7 7 6 7 7 6 8 8 11 10 10 13 14 13 8 6 6 5 5 5 5 5 5 5 5 5 5 5 5 4 5 6 6 6
9 9 13 12 10 9 9 9 9 8 8 7 8 8 7 8 9 8 10 12 14 13 13 9 6 5 5 5 5 5 5 4 5 5 5 5 5 5 5 3 3 5 6 6
8 8 9 9 10 10 10 9 9 7 9 8 8 9 10 10 9 11 12 13 14 13 9 6 5 5 5 5 4 4 4 4 4 4 4 4 4 5 5 5 4 3 4 5
7 8 6 7 8 9 9 8 8 7 8 9 9 11 11 10 11 12 10 12 11 7 6 5 5 5 5 4 4 4 4 4 4 4 4 4 4 4 5 5 5 4 4 3

GFSNW_con_lsi_024.txt.gz
Lid_Strength_Index
3 2 2 1 -0 -0 0 2 6 -0 -1 7 6 10 7 6 7 5 7 7 9 10 9 9 9 10 10 8 8 11 7 9 12 10 7 7 7 8 8 11 12 10 11 12
2 2 2 1 0 -0 1 4 4 -0 1 10 9 7 7 6 7 7 8 9 7 7 9 12 9 9 7 8 8 11 9 10 14 12 9 7 8 8 7 8 8 11 12 11
2 1 1 1 0 -0 1 4 8 4 2 4 8 9 8 8 5 6 6 7 7 8 9 8 10 10 9 7 8 7 8 11 11 13 10 9 10 9 8 8 11 10 11 9
2 2 1 1 1 -0 1 3 6 5 9 7 7 7 8 9 10 6 5 8 8 9 11 10 12 10 9 8 8 8 10 12 10 10 9 10 9 9 8 9 8 10 10 10
2 2 1 1 1 0 2 6 6 5 7 6 8 8 9 9 8 8 9 8 8 8 10 9 10 9 10 12 9 10 9 13 10 11 10 10 10 9 8 8 8 8 9 9
2 2 1 1 1 1 4 3 2 5 7 7 9 9 8 9 8 7 6 7 8 9 7 6 6 5 6 7 9 10 11 13 12 13 9 10 12 9 9 8 7 7 10 7
2 2 2 1 0 1 1 3 4 7 9 9 9 8 7 8 8 9 7 6 8 6 4 4 5 5 6 6 7 7 10 12 11 12 10 16 10 6 7 8 7 7 7 6
2 2 2 1 1 0 1 1 4 7 9 8 8 7 8 7 6 7 7 6 5 4 6 10 10 9 9 8 7 8 7 11 14 13 13 11 10 9 9 8 10 7 7 6
2 2 2 1 1 0 1 1 2 5 9 8 7 9 8 8 8 7 7 4 3 5 8 10 13 12 11 12 11 7 8 8 13 12 15 16 12 8 6 7 12 7 7 7
2 2 2 1 1 1 1 1 1 5 9 6 6 9 9 7 7 9 7 7 7 5 10 13 12 12 9 15 15 12 12 12 15 14 14 13 9 7 6 13 12 6 6 6
4 2 2 2 1 1 1 2 1 4 7 6 5 5 7 7 7 10 7 8 7 9 12 13 12 13 11 12 12 13 14 14 14 14 14 17 7 7 11 8 6 6 5 5
5 3 2 2 1 1 1 3 1 2 6 6 3 3 3 4 4 6 6 8 8 8 11 10 11 13 12 12 16 9 15 12 14 13 14 8 6 7 5 5 6 5 5 5
5 5 2 2 2 1 2 2 2 4 6 6 4 5 3 2 3 2 9 6 5 6 4 8 10 13 11 14 13 12 10 8 12 11 10 9 8 6 6 5 6 5 4 4
5 5 3 2 2 2 2 3 2 4 6 9 5 2 3 2 2 3 4 5 4 4 5 8 9 11 8 12 11 11 9 9 10 10 9 8 8 8 7 6 6 5 4 4
5 5 4 3 2 2 2 1 1 2 6 8 6 3 2 2 2 2 3 4 5 6 7 8 8 7 8 7 9 11 9 10 12 12 8 9 9 7 7 7 7 6 5 5
5 5 5 4 3 2 2 4 1 1 4 8 10 3 4 2 2 3 3 3 4 5 5 6 5 5 7 9 9 8 7 6 7 8 7 6 6 6 6 7 6 6 6 5
5 5 5 5 3 2 3 4 2 3 3 7 8 6 3 3 2 2 3 3 3 4 5 6 6 6 6 8 12 8 7 7 7 6 6 7 6 7 6 6 5 5 5 4
5 5 5 4 4 4 3 1 2 2 4 5 9 8 6 3 6 5 2 5 4 4 6 6 7 7 7 10 8 8 7 8 7 7 6 6 6 6 6 6 6 6 6 5
5 5 4 4 4 4 3 2 2 1 4 7 7 10 12 3 5 5 4 3 8 4 7 8 7 9 12 9 8 7 7 8 7 6 6 6 6 6 6 6 5 6 6 6
5 5 5 6 5 5 4 4 5 5 4 5 8 5 9 5 6 7 6 4 6 9 8 6 9 9 7 6 6 6 5 5 6 7 7 6 7 6 6 5 5 5 5 6
5 7 7 6 5 5 6 7 7 6 8 6 6 5 8 4 9 9 6 8 6 10 9 9 9 10 7 5 5 4 4 4 5 5 5 5 5 6 5 5 5 5 5 5
6 6 6 7 8 7 9 9 7 8 8 6 6 6 5 5 4 7 6 9 7 12 6 9 10 7 5 4 4 4 4 4 4 4 4 4 4 4 4 4 4 4 4 4
4 7 8 8 7 12 11 13 10 9 6 5 5 6 5 5 5 7 7 12 11 7 10 10 8 6 4 4 4 4 3 3 3 4 4 4 4 4 4 4 4 4 4 4
7 9 11 9 9 9 8 8 8 6 6 6 4 5 6 6 8 6 12 7 7 12 14 12 6 5 5 4 3 4 4 4 4 3 4 4 4 5 4 5 4 4 4 4
8 7 11 8 6 4 5 5 5 6 4 5 6 6 6 7 8 7 9 11 14 12 12 7 5 4 4 4 4 3 3 3 4 4 4 4 4 4 4 4 5 5 5 4
7 6 8 6 6 6 5 5 6 4 5 5 5 7 8 9 8 11 12 13 14 12 9 5 4 4 4 4 3 3 3 3 3 3 4 3 4 4 4 4 5 5 6 5
7 7 5 5 6 6 6 5 5 3 6 8 7 10 11 7 10 12 9 12 10 7 4 3 4 4 3 3 3 3 3 3 2 3 3 4 3 3 3 5 5 4 4 5

GFSNW_con_lsi_027.txt.gz
Lid_Strength_Index
2 2 2 1 1 1 0 2 6 -0 -1 7 6 9 6 5 6 5 6 7 8 9 9 10 9 9 8 6 6 9 7 10 14 11 7 6 6 8 8 11 12 10 10 11
2 2 2 1 1 1 1 4 3 0 0 10 9 7 6 6 6 6 7 8 7 7 9 12 9 9 8 7 8 10 9 11 15 15 10 7 8 7 7 8 8 11 12 11
2 2 2 1 1 1 1 3 8 3 2 4 7 8 8 8 5 6 5 6 6 9 9 7 10 10 8 7 7 7 8 11 12 17 12 8 9 8 8 8 10 10 10 9
2 2 2 1 1 1 1 3 7 5 9 7 7 7 8 9 9 6 5 7 7 8 10 9 11 9 8 7 7 8 10 13 10 11 11 10 8 8 8 9 8 10 9 9
2 2 2 1 1 1 1 5 6 4 6 6 7 7 9 9 8 8 8 9 7 7 9 9 11 9 9 12 9 10 9 14 10 11 12 10 10 8 8 8 8 8 8 8
2 2 2 1 1 1 2 2 3 5 7 7 8 8 8 8 7 6 6 7 8 9 7 6 5 5 6 7 8 9 11 12 11 14 12 12 12 9 8 8 7 7 9 8
4 2 2 1 1 1 1 2 3 7 9 7 7 8 7 7 7 8 6 6 9 6 4 4 5 5 6 6 6 6 10 12 11 13 13 19 9 6 6 7 7 6 6 6
5 4 2 1 1 1 2 1 4 6 9 7 7 7 8 6 6 7 6 6 4 3 6 9 9 9 8 7 6 7 7 10 14 17 17 12 10 8 8 8 8 6 6 5
5 5 3 1 1 1 1 2 1 4 9 7 6 7 8 9 8 7 6 3 3 4 8 9 13 14 11 13 10 6 7 8 13 14 17 20 13 7 6 6 12 7 6 6
4 5 4 3 1 1 1 2 0 4 8 5 6 8 8 6 7 8 7 7 6 5 10 13 14 13 10 14 16 11 10 11 14 14 15 14 10 7 6 12 13 6 6 6
4 5 5 4 2 1 1 2 -1 4 6 5 4 4 6 6 7 10 7 8 8 7 12 13 13 13 12 12 12 13 12 14 13 12 15 18 7 7 11 9 6 5 5 5
4 5 5 5 3 2 1 3 0 1 5 5 2 2 1 2 3 6 7 8 8 7 10 9 10 13 12 12 16 10 15 12 14 13 14 9 7 7 5 5 6 5 5 4
3 5 5 5 4 3 2 1 1 3 5 4 3 4 1 -0 1 1 8 6 5 6 5 7 10 13 10 15 14 12 10 8 12 11 10 9 7 6 6 5 5 4 4 4
3 4 5 5 5 4 2 2 1 3 4 8 5 1 2 0 0 1 3 5 4 4 4 7 9 11 7 11 11 11 10 9 11 11 8 8 7 6 5 5 4 4 3 3
3 3 4 4 5 5 3 1 1 1 4 7 5 2 1 1 1 2 2 4 5 6 7 8 8 5 7 8 9 9 7 10 12 12 8 8 7 5 5 5 5 4 4 4
2 3 4 5 5 5 4 4 0 -0 1 7 8 2 3 2 2 2 3 3 4 5 7 7 6 4 6 8 12 8 6 6 6 8 6 6 5 4 4 5 5 4 4 4
2 3 4 5 4 3 4 5 1 1 1 6 8 7 3 2 3 3 4 2 4 5 6 6 6 6 6 9 12 7 6 6 6 5 5 7 6 7 5 4 4 4 4 4
3 3 4 4 4 4 4 3 3 1 2 4 9 8 5 2 6 7 3 5 4 4 6 5 7 5 6 9 8 7 6 6 6 6 5 6 5 4 5 4 4 4 4 4
3 3 3 3 3 4 4 4 4 2 3 7 7 9 12 3 5 4 5 4 8 4 6 5 6 9 11 8 7 7 6 7 7 5 5 5 6 6 5 5 5 5 4 4
3 2 2 4 4 4 4 5 7 6 5 5 7 4 8 4 5 7 6 5 8 9 6 4 7 9 6 6 5 5 5 5 5 7 7 6 7 6 6 5 5 5 4 4
1 3 4 3 2 3 5 8 9 8 9 6 5 5 6 3 8 8 5 8 7 10 7 7 9 10 6 4 5 4 4 4 5 5 4 4 4 5 5 5 4 4 4 4
5 5 4 4 5 6 8 8 7 8 8 5 6 5 4 4 3 7 7 9 7 12 5 8 10 7 5 4 4 4 4 3 4 4 5 4 4 4 4 4 4 4 3 3
4 6 8 7 6 11 10 11 8 8 6 6 6 6 4 4 4 7 8 11 12 6 10 9 8 6 5 4 3 3 3 3 3 3 4 4 4 4 3 4 3 3 4 3
6 6 11 8 9 8 7 7 6 4 4 6 5 6 6 5 7 7 11 8 7 12 13 12 7 6 5 4 3 3 3 3 4 3 3 4 4 4 4 4 5 4 5 4
6 6 11 8 5 5 4 4 3 3 4 5 6 6 6 7 8 7 9 11 14 12 12 7 5 4 4 4 3 3 3 3 3 3 3 3 3 3 3 4 4 5 5 5
6 6 7 5 6 6 5 4 5 3 3 3 5 8 9 9 8 11 11 13 14 12 8 5 3 4 3 3 3 3 3 2 2 2 3 3 3 3 3 3 4 5 6 6
7 7 4 5 5 5 4 4 4 3 4 6 7 10 10 6 9 12 9 12 10 7 5 4 3 3 3 2 3 3 3 2 2 2 2 3 3 2 3 3 3 4 4 6

GFSNW_con_lsi_030.txt.gz
Lid_Strength_Index
2 2 2 2 2 2 2 2 7 0 -1 7 7 9 7 6 6 5 6 6 7 9 10 10 10 10 9 6 6 9 7 11 14 11 7 6 7 9 9 12 13 11 11 11
3 2 2 2 2 2 3 5 4 0 1 10 9 7 7 6 6 6 7 7 7 7 9 13 11 11 7 6 7 9 9 12 15 13 10 8 10 8 8 8 9 12 13 11
4 2 2 2 2 2 2 4 8 4 3 4 8 8 8 8 5 6 6 7 6 8 10 8 10 11 8 6 7 6 8 11 13 17 13 12 13 10 8 9 12 11 11 10
4 4 2 2 2 2 2 3 6 5 9 7 7 7 8 9 9 6 6 8 7 8 11 9 10 9 8 7 7 7 9 15 12 11 11 12 13 12 9 9 9 11 10 9
3 4 4 2 2 2 2 5 6 5 7 6 7 8 8 9 8 8 9 9 8 8 10 10 11 9 8 9 8 10 9 15 12 13 10 12 14 11 10 8 9 8 9 8
3 4 4 3 2 2 3 3 3 6 7 7 8 9 8 8 7 7 6 7 9 9 8 6 6 6 6 7 8 9 10 13 15 16 11 13 15 11 10 8 8 8 10 8
3 4 4 4 2 2 3 3 3 7 9 8 8 7 8 8 7 9 6 6 8 6 4 4 5 6 7 7 7 6 10 11 13 15 14 20 11 7 7 8 7 7 7 7
3 3 4 4 4 2 2 2 3 6 9 7 7 7 7 7 6 7 7 6 5 4 6 9 10 10 9 8 7 7 7 9 15 16 17 14 12 10 11 9 10 8 7 6
3 3 4 4 4 3 2 2 2 4 8 7 6 7 7 9 9 7 6 4 3 4 7 9 13 17 14 12 10 6 7 8 13 14 19 20 14 9 7 7 14 7 7 7
2 2 4 4 4 4 3 2 -0 3 8 6 5 7 8 6 7 9 7 7 7 5 10 13 14 14 10 15 15 14 10 12 14 14 16 15 10 8 6 15 14 7 6 6
2 2 3 4 4 4 4 3 0 3 6 5 4 3 6 5 7 10 8 8 7 8 11 11 13 14 11 13 12 14 15 15 16 14 15 19 9 8 13 10 8 7 6 6
2 2 2 3 4 4 4 5 1 -0 5 5 2 2 1 2 3 6 6 8 8 7 10 9 11 13 12 12 15 9 15 12 14 14 14 9 8 8 7 6 6 6 5 5
3 2 2 3 4 4 5 6 2 3 5 4 4 4 1 0 1 0 7 6 5 6 5 8 9 13 11 14 14 13 10 8 12 12 10 9 8 7 6 6 6 5 4 4
4 2 2 3 4 4 5 6 2 3 5 8 5 1 3 0 0 1 1 3 3 4 5 8 9 11 7 11 10 11 9 8 10 11 9 8 8 7 7 6 5 4 4 4
4 3 2 2 3 4 4 4 3 1 4 8 6 3 1 1 1 2 2 3 5 6 7 9 10 7 7 8 9 11 8 9 11 12 7 8 8 7 5 5 5 4 4 4
4 3 2 2 3 4 4 6 2 1 2 6 9 3 3 2 2 3 4 4 5 5 7 8 6 5 7 11 13 8 7 6 6 7 5 6 5 5 6 6 5 4 4 4
4 4 3 3 3 3 4 5 5 2 1 6 8 7 3 3 3 3 4 3 5 5 6 7 7 6 6 9 11 7 6 6 6 5 5 6 6 6 5 5 5 4 3 3
4 4 3 3 2 2 3 2 4 3 4 4 9 8 6 3 5 6 3 5 5 5 6 5 7 6 6 10 7 6 6 6 6 5 5 5 5 4 4 5 5 5 4 3
4 4 4 3 2 3 3 2 4 2 4 8 7 10 12 3 5 4 5 4 8 4 7 6 6 8 11 8 7 7 6 6 7 5 5 5 5 5 5 5 5 6 5 4
4 4 4 5 3 2 2 3 5 7 7 7 8 5 8 5 5 6 7 5 8 11 8 5 9 9 6 5 5 5 5 5 5 7 7 6 6 5 5 5 4 5 5 4
4 5 6 3 2 2 3 6 8 7 9 7 6 6 7 4 7 8 6 8 7 11 9 8 10 10 7 4 4 4 3 4 4 5 5 4 5 6 5 5 4 4 4 4
6 7 5 4 5 5 7 9 7 8 9 6 6 7 6 5 4 7 7 9 8 11 6 8 12 8 5 4 4 3 3 3 3 3 4 4 5 5 5 5 5 4 4 3
5 7 9 8 6 11 11 11 9 8 6 5 5 7 5 5 5 7 8 11 12 7 10 11 9 6 5 4 4 3 3 3 3 3 3 4 5 5 6 6 5 5 5 4
7 8 11 9 9 8 8 7 7 4 4 5 5 6 6 5 7 7 11 8 8 12 13 12 8 6 5 4 3 4 3 3 4 4 3 4 4 4 4 5 5 6 6 5
7 7 11 8 6 5 4 4 4 4 3 4 5 5 6 7 8 7 9 11 13 12 12 8 6 4 4 4 4 3 3 3 3 4 3 3 3 4 4 4 4 5 6 6
6 6 7 5 6 6 5 5 5 3 3 3 4 6 8 9 8 10 11 12 14 12 8 5 5 4 4 4 3 3 3 3 3 3 3 3 4 3 4 4 4 5 5 6
7 6 4 5 5 6 5 4 4 2 4 6 6 10 10 7 10 11 10 13 10 7 5 4 4 4 3 3 3 3 3 3 2 2 2 3 3 2 3 4 4 4 4 5

GFSNW_con_lsi_033.txt.gz
Lid_Strength_Index
3 3 3 3 2 2 3 5 9 3 2 9 9 12 8 6 7 6 7 8 9 10 10 11 11 12 11 8 8 11 9 13 15 12 9 8 9 12 12 15 15 13 14 14
3 3 3 4 3 2 4 6 6 2 3 12 11 8 8 7 7 8 9 8 8 8 10 13 11 11 8 7 8 10 10 14 18 15 11 9 11 10 10 12 11 14 15 14
3 3 4 4 4 3 4 6 10 6 5 6 9 9 9 9 6 7 7 8 7 9 10 9 11 11 8 7 8 6 8 12 14 18 15 12 14 12 11 12 14 13 12 12
2 3 4 4 4 3 4 5 8 7 11 10 9 8 9 11 10 7 7 9 9 10 13 11 12 10 9 7 7 9 9 14 13 12 12 11 12 12 12 13 13 13 11 11
2 2 3 4 4 4 4 7 8 7 8 8 8 9 11 11 10 9 10 10 9 9 12 11 12 10 10 11 9 10 10 15 13 14 11 11 13 11 11 12 11 12 11 12
2 2 3 4 4 4 6 4 4 6 8 9 10 10 9 10 9 7 7 8 9 10 9 7 7 7 7 8 10 10 11 13 15 17 12 13 16 12 12 11 10 10 13 10
2 2 2 3 4 4 6 4 5 8 11 9 9 8 8 8 8 9 7 7 9 7 4 5 6 7 7 8 8 8 11 12 14 17 15 21 12 9 10 11 9 10 8 9
3 2 2 2 3 4 6 5 5 7 11 9 8 8 8 7 7 8 8 6 6 5 6 10 12 12 11 9 9 9 9 11 15 18 18 15 13 11 12 13 13 10 9 9
4 3 2 2 3 4 6 6 3 5 9 10 7 8 8 10 9 9 8 5 4 6 9 11 15 17 14 15 12 9 8 9 14 16 19 21 14 10 9 9 16 9 9 8
4 3 2 2 3 4 5 7 5 4 8 7 6 8 9 6 8 10 8 7 8 6 11 14 15 15 11 16 16 15 14 13 16 16 17 15 11 9 8 16 15 9 8 8
4 4 3 2 2 3 5 7 6 6 6 6 5 5 7 7 7 10 8 9 8 10 12 13 13 14 13 13 13 14 15 16 16 15 17 19 10 10 13 10 8 8 7 7
5 4 3 2 2 2 4 8 5 2 4 6 3 3 3 3 4 7 7 8 8 8 10 11 11 13 12 13 16 10 15 12 14 13 14 9 8 9 8 8 8 8 7 6
5 4 4 3 2 2 3 6 6 6 6 6 5 5 2 1 2 2 8 6 6 7 6 9 10 13 11 14 14 13 10 8 12 12 10 9 8 8 8 7 7 7 6 6
5 4 4 3 2 2 3 6 6 6 6 9 7 2 4 1 1 3 3 5 4 5 6 8 10 12 9 12 11 11 10 9 11 11 9 8 7 7 7 7 7 6 6 6
5 4 4 4 3 2 3 4 4 5 7 10 7 4 2 2 2 3 3 4 6 7 8 9 11 9 9 9 9 11 8 10 12 12 8 8 8 6 6 7 7 7 6 6
5 4 4 4 4 3 5 5 3 4 4 8 10 4 4 3 3 3 4 4 5 6 7 8 8 6 9 12 13 8 7 6 7 8 6 6 6 6 6 7 7 6 6 5
5 4 4 4 4 4 6 5 3 2 4 8 9 8 4 3 3 4 5 4 5 6 7 9 9 8 8 10 12 8 7 7 7 5 6 7 6 7 6 6 6 6 5 4
5 4 4 4 4 4 5 3 2 2 4 6 11 10 7 4 7 7 4 7 6 7 8 7 9 8 8 12 9 8 6 6 6 6 6 5 5 5 5 5 6 7 6 5
5 5 4 5 5 4 4 2 2 2 4 9 9 12 12 4 6 6 6 6 10 6 9 9 8 10 13 10 8 8 7 7 6 5 5 5 5 5 5 5 5 5 5 4
5 5 6 6 5 2 2 4 5 5 6 6 10 8 10 6 7 8 8 8 10 12 10 7 10 11 7 7 6 6 6 6 5 7 7 6 6 6 5 5 5 5 5 4
5 7 7 5 3 5 5 7 8 7 9 7 7 8 9 5 9 10 8 10 9 13 11 11 12 12 8 6 6 5 5 5 5 6 6 5 5 5 5 5 5 5 5 5
7 7 6 5 6 7 9 9 8 9 10 7 8 7 7 7 5 9 8 10 10 13 8 11 14 9 6 5 5 5 4 4 5 5 5 4 5 5 5 5 6 5 6 5
5 7 8 9 8 11 11 13 11 10 7 7 7 8 7 6 6 9 10 12 12 8 12 13 11 7 6 5 4 4 4 4 4 4 4 4 4 5 5 6 5 5 6 6
7 8 12 11 11 10 9 9 8 6 6 6 6 7 8 7 9 9 13 10 10 14 15 14 9 7 6 5 4 4 5 4 5 4 4 4 4 5 5 6 6 6 7 7
8 7 11 10 7 6 6 5 6 5 5 5 7 7 7 9 9 9 10 12 14 14 14 11 8 6 6 5 4 4 5 4 4 4 5 5 4 4 5 5 6 6 7 7
7 7 8 7 7 7 6 6 7 4 5 5 6 7 9 10 10 12 12 14 15 12 10 7 6 6 5 5 4 4 4 4 4 4 4 4 4 4 4 4 4 6 7 7
7 8 5 6 6 7 6 5 5 4 6 8 8 10 11 8 12 13 11 12 10 9 7 6 5 6 5 4 4 4 4 4 4 3 3 3 4 4 4 6 6 5 6 6

GFSNW_con_lsi_036.txt.gz
Lid_Strength_Index
3 3 3 3 4 5 7 9 10 4 4 11 12 13 9 6 7 6 8 8 9 11 10 12 12 12 10 7 8 11 10 13 16 13 9 9 10 11 13 17 18 16 16 16
3 3 3 3 3 4 7 9 9 4 5 12 14 10 8 7 8 8 8 9 8 8 11 13 11 11 7 7 8 10 10 14 17 15 12 10 11 11 11 12 14 17 18 16
4 3 3 3 4 4 7 10 12 9 9 10 12 11 10 10 7 8 7 8 8 10 11 10 12 11 8 7 8 7 8 12 15 17 14 12 14 12 11 13 17 16 16 14
4 4 3 2 3 4 8 11 13 10 14 12 11 10 9 11 11 8 7 9 9 10 13 12 12 10 9 8 7 8 10 15 13 12 12 11 12 12 12 13 13 16 13 13
4 4 3 3 3 3 8 13 12 9 10 10 11 10 10 11 10 9 10 11 9 9 12 12 13 11 11 11 9 10 10 14 13 14 12 12 13 11 11 12 11 12 12 13
4 4 4 3 2 4 10 10 8 8 9 11 11 11 9 10 8 8 7 8 9 10 9 8 7 7 8 8 10 11 12 13 14 17 13 13 16 13 12 11 10 11 14 11
4 4 4 4 3 3 8 10 8 9 11 10 10 9 8 9 8 10 8 7 9 7 5 6 7 8 8 8 8 8 12 13 13 17 15 20 13 10 10 12 10 10 11 10
4 4 4 4 3 3 7 9 8 9 11 9 9 9 9 8 7 9 8 7 6 6 8 11 12 12 12 11 9 9 9 11 15 18 18 15 13 11 12 13 13 10 11 9
4 4 4 4 3 2 5 8 9 9 10 10 8 10 9 10 10 9 8 6 5 7 10 12 16 17 14 15 13 8 9 10 14 16 19 21 14 11 8 9 16 9 9 9
5 4 4 4 4 2 4 7 8 8 10 7 7 9 9 7 8 10 8 8 8 8 13 15 15 15 11 16 16 15 14 14 16 16 17 15 11 10 8 16 15 9 8 9
5 5 4 4 4 3 3 6 6 8 10 8 6 6 8 7 9 10 8 9 11 11 12 13 13 14 13 14 12 14 15 16 16 15 17 19 10 10 13 10 9 8 8 7
5 5 5 4 4 3 3 6 6 5 9 8 5 4 4 4 5 7 6 9 9 10 11 11 11 13 12 13 16 10 15 12 14 14 14 11 9 9 8 7 9 8 8 7
6 6 5 5 4 3 3 5 5 6 10 10 8 7 4 3 3 3 8 10 9 9 7 11 10 13 11 14 14 12 10 8 12 12 10 9 9 8 7 7 8 8 8 7
6 6 5 5 4 4 4 5 5 7 7 11 10 4 5 2 3 3 5 7 7 7 6 9 10 12 8 12 11 12 11 9 11 11 9 9 8 8 8 8 8 8 7 7
6 5 5 4 4 4 4 5 4 5 7 11 10 6 5 4 4 4 5 7 7 7 9 9 10 8 9 9 10 11 9 10 12 13 9 10 9 8 8 8 8 8 8 7
6 6 5 5 4 4 6 8 5 4 5 8 12 8 6 5 4 4 5 6 6 7 7 8 8 6 9 12 13 9 8 7 6 8 6 7 7 7 7 7 7 7 7 6
6 6 5 5 5 5 9 9 5 3 3 7 11 12 7 5 5 5 6 5 6 6 7 9 9 8 9 11 13 9 7 6 6 5 6 7 7 8 7 6 6 6 6 6
6 6 5 5 5 5 7 6 4 3 4 6 11 12 10 6 8 8 5 7 6 7 8 8 9 9 9 12 9 8 7 7 6 6 5 5 5 4 5 6 6 6 7 6
5 5 5 6 7 7 5 2 2 3 4 8 9 15 15 5 7 6 8 8 11 6 9 9 8 11 14 10 8 8 7 8 7 5 5 5 5 5 5 6 7 7 7 6
5 6 7 7 6 2 3 5 6 6 5 6 9 9 12 8 8 9 10 9 10 12 10 7 10 12 8 7 6 6 6 6 6 8 7 6 7 6 6 7 6 6 6 6
8 10 9 7 4 5 6 8 9 9 9 8 9 9 11 7 10 10 9 11 10 14 11 11 12 12 8 7 6 5 5 5 5 5 5 6 6 7 7 7 6 6 6 7
8 8 6 7 8 8 9 10 8 9 11 9 10 9 8 7 7 11 10 12 10 14 9 11 14 10 7 6 5 5 5 5 5 5 5 4 4 5 7 7 7 7 7 7
6 7 8 9 9 12 11 14 11 11 8 7 8 9 7 8 7 10 12 14 14 9 14 14 11 8 7 6 5 5 4 5 4 4 4 4 4 5 7 7 7 6 7 7
8 9 12 11 13 11 11 10 10 7 6 6 8 8 8 8 9 9 13 11 10 14 17 15 10 8 6 5 5 5 5 5 5 4 4 5 5 5 6 7 7 7 7 7
9 9 12 11 9 8 7 7 7 6 5 6 8 8 8 10 10 9 11 13 15 16 16 12 8 6 5 6 5 6 4 5 5 4 4 5 5 5 6 7 7 7 8 8
8 8 10 9 9 8 8 8 7 5 6 5 7 10 10 11 11 12 13 14 15 15 12 8 7 6 5 6 6 5 4 5 5 4 4 4 5 5 6 6 7 7 8 8
8 9 8 8 8 8 7 7 7 5 7 9 9 11 11 9 13 13 12 13 12 10 8 7 6 6 5 5 5 4 4 5 4 4 4 4 5 6 6 7 8 7 8 8

GFSNW_con_lsi_042.txt.gz
Lid_Strength_Index
5 5 5 5 4 5 7 12 13 7 7 13 15 16 12 8 8 7 8 8 10 11 11 12 12 12 10 7 8 12 10 13 16 13 9 9 11 13 13 16 18 18 20 19
5 5 5 5 5 5 7 11 11 7 8 19 17 12 10 9 9 9 9 10 9 9 11 14 12 11 8 7 9 11 10 14 17 15 12 10 12 11 12 13 14 18 20 19
5 5 5 5 5 5 9 12 15 12 12 14 15 13 11 11 8 8 8 9 8 10 12 10 12 11 8 7 8 6 8 13 15 17 15 12 14 12 12 13 17 17 17 16
5 5 5 5 5 6 10 13 16 12 17 16 14 11 11 11 11 8 8 10 9 10 13 12 12 10 10 8 7 8 9 14 14 13 12 12 13 13 12 13 13 17 15 16
4 4 4 5 5 6 12 17 15 13 14 13 14 12 11 11 10 9 10 11 9 9 12 11 13 11 11 12 9 10 9 14 13 15 12 12 14 12 12 12 12 14 14 15
4 4 4 5 5 7 11 11 13 12 14 14 16 15 11 11 10 8 7 8 10 10 9 7 8 8 8 8 10 11 12 13 15 17 13 13 16 13 12 12 11 12 16 13
4 4 5 5 5 6 8 9 10 12 16 14 14 13 11 11 10 10 8 8 9 7 6 7 8 10 9 9 9 8 11 13 14 17 15 20 12 10 10 11 10 10 11 11
4 5 5 5 5 5 8 8 10 11 14 13 12 12 11 11 9 9 8 8 7 8 10 12 13 12 12 11 10 10 10 12 15 17 18 15 12 11 12 13 13 9 10 9
5 5 5 5 5 5 6 8 8 10 13 14 10 13 12 13 12 9 9 7 7 9 13 13 16 17 14 15 13 9 10 11 14 16 19 20 14 10 8 9 16 9 9 9
6 5 5 5 5 5 6 7 7 9 12 11 10 11 13 10 10 11 9 8 10 10 14 15 15 15 12 16 16 15 14 14 16 16 17 15 11 10 9 17 15 9 8 8
6 6 6 5 5 5 6 7 7 9 11 10 8 9 11 11 10 11 9 10 10 12 13 14 14 14 13 14 12 14 15 16 16 15 17 19 10 11 13 10 8 8 7 7
6 6 6 5 5 5 5 8 6 6 9 9 6 6 7 7 7 8 8 9 9 9 11 12 12 15 12 13 16 10 15 12 14 14 14 10 9 11 8 7 8 7 7 7
6 6 6 6 6 5 5 7 6 8 10 9 11 10 8 7 6 5 9 10 8 8 6 9 10 13 11 15 14 12 11 9 12 12 10 10 8 8 7 6 6 6 6 7
6 6 6 5 5 5 5 7 6 8 9 12 12 6 8 6 6 7 6 7 7 6 7 9 10 12 8 12 11 12 10 9 11 11 9 9 8 8 7 6 6 6 6 5
6 6 6 5 5 5 6 6 6 6 9 12 11 8 7 7 6 6 5 6 7 7 8 9 10 8 9 9 9 11 9 10 12 13 10 10 9 7 7 7 7 7 6 6
5 5 5 5 5 5 6 9 6 5 6 11 12 9 7 7 7 5 6 6 6 6 8 8 8 6 9 12 13 10 9 7 7 8 7 8 7 6 6 6 7 6 7 6
6 5 5 5 5 6 8 9 6 5 6 10 11 12 7 6 7 6 6 5 6 6 7 8 10 8 8 10 14 10 9 7 7 6 7 8 7 8 7 6 6 6 7 7
5 5 4 4 4 5 7 5 4 4 7 7 11 12 11 6 8 9 7 7 6 7 8 7 9 9 11 13 11 10 8 7 7 7 6 7 7 8 8 7 7 7 8 9
5 4 4 5 6 7 6 3 3 4 7 10 10 13 15 8 7 6 6 6 10 6 9 9 8 10 14 11 11 9 9 9 8 7 7 7 9 9 9 9 9 10 9 9
6 8 7 7 6 4 4 5 7 7 7 7 9 8 12 10 10 10 9 9 11 12 10 7 10 12 9 9 9 8 7 7 7 8 9 8 9 9 10 10 9 10 10 10
11 13 10 8 5 6 6 9 9 10 11 9 9 8 9 8 12 12 9 11 12 13 12 11 11 12 10 8 8 7 6 6 7 7 5 6 8 9 9 9 9 9 10 10
11 10 8 7 9 10 10 11 9 10 12 9 10 10 9 10 8 9 9 12 12 14 9 11 13 10 8 7 7 7 6 6 6 6 6 6 7 8 9 10 10 10 10 10
9 8 10 9 10 13 13 15 11 11 8 7 7 9 8 10 9 9 12 14 14 12 15 14 12 10 8 7 6 6 6 5 5 6 5 6 7 8 9 10 10 9 9 10
11 11 14 12 14 13 13 12 11 7 7 7 7 8 8 9 11 11 13 12 13 17 17 15 11 9 7 6 6 6 6 6 6 5 5 6 7 7 8 9 9 10 10 10
12 11 14 13 11 10 9 7 7 6 6 6 8 8 8 9 10 10 12 13 16 17 16 14 10 8 7 7 6 7 6 6 6 5 5 6 6 7 8 9 10 9 10 10
10 11 12 9 10 11 10 9 9 7 7 6 7 9 10 11 11 13 13 15 18 16 14 10 9 8 7 7 6 6 6 6 6 5 5 6 6 7 8 8 9 10 10 10
11 12 9 10 11 10 10 10 9 8 9 10 9 12 12 9 12 13 14 15 13 11 11 9 8 7 7 6 5 5 6 6 6 5 5 6 7 7 8 9 9 10 10 10

GFSNW_con_lsi_045.txt.gz
Lid_Strength_Index
4 4 5 5 5 6 6 9 10 6 6 8 11 11 11 9 8 7 8 8 9 10 10 11 11 11 9 6 7 10 9 12 14 12 8 7 9 10 10 13 14 13 15 15
4 4 5 5 5 6 7 11 10 6 7 12 11 11 11 9 9 9 8 9 8 8 11 13 11 10 7 6 8 9 9 12 15 13 11 9 10 10 9 10 11 13 16 15
4 4 4 4 5 5 7 10 12 10 10 10 11 12 12 11 8 8 7 8 7 9 11 9 11 11 8 6 7 6 7 11 13 16 13 11 13 11 10 11 13 13 14 13
4 4 4 4 5 6 9 12 13 12 14 13 12 11 12 12 11 8 7 9 9 10 13 12 12 9 9 7 6 7 8 13 12 11 11 11 11 11 11 12 11 14 12 13
4 4 4 5 5 6 10 12 12 11 13 12 11 11 12 12 10 10 10 10 9 9 11 11 12 10 10 11 8 9 8 13 11 13 10 11 12 10 10 10 10 11 11 12
3 4 4 5 5 6 9 10 11 11 13 13 13 11 11 12 10 9 8 8 9 10 8 7 7 7 8 8 10 10 11 12 13 15 11 12 14 11 10 10 9 9 13 10
4 4 4 4 5 6 8 9 10 13 14 14 12 11 10 12 10 11 8 7 9 6 5 6 6 8 8 9 9 9 12 12 13 15 13 19 11 9 10 11 10 9 8 9
5 5 5 5 5 5 7 8 9 12 14 13 12 11 10 11 9 10 9 6 5 5 7 9 11 11 11 11 9 10 10 12 15 17 17 14 12 11 12 13 12 8 9 7
4 5 5 5 5 5 5 7 7 10 13 12 11 11 10 12 11 10 8 6 4 6 8 10 14 16 13 14 12 9 9 11 14 15 18 19 14 10 9 9 16 8 8 7
5 5 6 5 5 5 5 6 6 9 13 11 10 12 11 10 10 11 9 8 7 7 10 13 14 14 11 15 15 14 13 13 15 15 17 14 10 9 9 16 15 8 8 8
5 5 5 5 5 5 5 6 6 9 11 10 9 8 9 9 10 12 8 9 8 9 11 12 12 13 12 13 11 13 14 15 15 15 17 18 8 10 13 10 8 8 7 7
6 5 5 5 5 5 5 7 5 6 10 10 7 6 5 5 7 9 8 8 8 8 10 10 10 12 11 12 15 9 14 12 14 13 14 8 8 9 8 7 7 7 7 6
6 6 6 5 4 4 4 5 5 6 9 9 9 9 5 4 5 5 10 7 6 7 6 8 10 13 10 14 13 12 9 8 12 12 10 9 8 7 7 6 6 6 5 5
6 6 6 6 5 4 4 5 4 6 9 12 10 6 6 4 5 5 5 5 6 5 6 8 10 12 8 12 11 11 9 8 10 11 9 8 8 7 6 6 5 6 5 5
7 6 6 6 6 6 5 5 5 5 8 12 10 7 5 4 5 6 6 6 7 7 8 9 10 8 9 9 9 10 7 9 12 13 8 9 8 7 6 7 7 6 6 5
6 6 6 5 5 5 6 8 6 4 5 10 13 7 6 5 4 6 7 7 7 6 7 8 7 5 8 12 12 7 6 6 7 9 7 7 6 6 6 7 7 6 7 6
6 5 5 5 5 6 8 9 6 4 5 10 11 10 7 5 4 5 6 6 6 6 7 8 8 7 8 10 11 7 6 5 5 5 7 8 8 8 7 7 7 6 7 8
5 5 5 5 4 5 7 5 4 4 7 8 11 10 8 4 6 8 5 6 6 6 7 6 8 7 8 11 7 6 5 5 5 5 6 8 8 8 8 8 8 9 9 9
5 6 5 5 6 8 6 3 3 4 6 10 10 11 11 5 6 5 6 6 10 6 9 8 8 10 11 8 7 6 6 6 6 5 6 7 9 9 9 9 9 10 10 9
7 7 7 8 6 5 5 6 7 8 7 8 10 7 10 6 7 7 8 7 10 12 9 6 10 10 6 6 5 5 5 5 5 6 7 8 9 10 10 10 9 10 10 9
9 12 11 8 6 6 7 9 9 9 10 8 8 8 9 6 9 9 6 9 8 12 10 10 11 11 8 5 5 4 4 4 4 4 4 6 7 9 10 10 10 9 10 10
9 10 8 8 8 9 10 11 9 10 11 7 8 8 8 6 6 8 8 10 9 13 8 10 13 9 6 5 5 4 4 4 4 4 4 5 6 7 9 9 9 9 10 10
8 9 9 9 9 13 13 14 11 10 7 7 7 9 8 7 7 8 9 11 12 8 11 12 10 7 5 5 4 4 4 3 4 4 4 4 5 7 8 10 10 10 10 10
12 11 13 11 12 11 10 9 9 6 6 6 7 8 9 7 9 8 11 9 9 13 14 13 8 6 5 5 4 4 4 4 4 4 4 4 5 6 7 9 10 10 11 10
13 10 13 11 8 8 7 6 6 5 5 6 7 7 8 9 11 9 10 12 14 12 12 9 6 5 5 5 4 4 4 4 4 3 4 4 5 6 7 8 9 10 10 11
12 12 11 8 9 8 7 7 7 5 5 6 6 9 11 11 10 12 12 13 14 12 8 6 5 5 5 4 4 4 3 3 3 3 3 4 5 6 7 7 8 10 10 11
12 11 7 7 8 8 7 6 6 5 6 8 8 11 12 9 12 12 10 12 10 7 6 5 5 5 4 4 4 3 3 3 3 3 3 4 4 5 6 7 7 9 10 10

GFSNW_con_lsi_048.txt.gz
Lid_Strength_Index
3 4 4 4 5 5 6 6 9 4 4 8 7 10 10 9 8 6 7 7 8 9 9 10 10 10 8 5 6 9 8 10 13 10 8 7 8 11 10 13 13 12 12 12
3 4 4 4 5 5 7 9 8 4 5 11 11 10 10 8 9 8 8 8 7 7 9 12 9 8 6 6 7 9 8 11 15 12 10 8 10 9 9 9 10 14 13 11
3 3 3 4 5 5 7 9 10 7 7 8 11 12 10 10 8 8 7 7 6 8 9 8 10 9 7 6 6 6 7 11 13 15 12 10 11 10 9 9 13 12 11 10
3 3 3 4 5 5 7 8 10 9 10 9 10 10 10 10 11 7 6 8 8 9 11 10 11 9 8 6 6 6 8 12 10 9 9 9 10 10 9 10 9 12 10 10
3 3 3 4 4 5 7 10 10 8 10 10 10 11 11 10 10 9 9 9 8 8 11 10 12 10 9 11 7 8 7 13 10 11 9 9 10 9 9 9 9 9 9 9
3 3 4 3 4 5 7 7 9 11 11 11 11 10 11 10 9 8 7 7 8 9 8 6 6 6 6 7 10 10 10 11 12 14 10 10 13 10 9 9 8 8 10 8
4 4 4 4 4 5 6 8 8 12 13 12 12 11 11 10 9 10 7 6 7 6 3 4 4 5 6 7 9 8 12 12 13 15 14 19 11 8 9 10 9 8 8 7
5 4 4 4 4 4 5 4 9 11 14 11 11 11 11 9 8 9 7 6 4 3 5 8 10 10 10 9 8 9 9 12 14 16 16 12 10 10 12 13 12 8 8 7
5 5 5 5 4 4 3 4 4 9 12 10 10 11 10 11 10 9 7 4 3 4 7 9 13 14 13 13 11 8 9 10 14 14 18 19 14 10 7 9 15 9 8 8
6 5 5 5 5 5 4 5 2 6 11 9 9 11 11 9 9 11 9 7 6 4 9 12 13 13 10 14 15 13 12 12 15 15 17 14 10 8 8 16 14 8 8 8
6 6 6 5 5 5 5 5 3 6 9 9 8 7 9 9 8 12 8 8 7 8 11 11 11 12 11 12 10 12 14 15 15 14 16 19 7 9 13 9 8 8 7 7
6 6 6 6 5 5 5 7 3 3 7 8 5 5 5 6 5 8 8 8 7 7 10 10 10 12 10 11 14 8 13 11 14 14 14 8 7 8 8 7 8 7 7 6
6 6 6 6 5 6 5 6 4 5 8 8 6 6 4 3 3 3 9 7 5 6 5 8 10 12 9 13 11 10 8 7 11 11 9 8 8 7 6 6 7 6 5 6
7 6 6 6 6 6 6 6 4 5 7 11 7 3 4 2 2 3 3 3 2 3 5 8 10 12 8 11 9 10 8 7 9 11 9 8 7 7 6 6 6 6 5 5
6 6 5 5 5 5 5 6 6 5 8 10 9 5 3 3 2 3 3 4 5 6 8 9 10 8 9 9 9 9 6 8 11 13 8 9 8 7 7 7 7 6 6 5
6 6 5 5 5 5 6 9 5 5 5 10 11 4 5 3 3 3 4 4 6 7 7 8 7 5 8 12 12 6 5 4 5 8 6 7 7 7 7 8 7 6 7 6
6 5 5 5 5 5 8 7 6 4 5 9 11 9 4 4 3 4 5 5 6 6 7 8 8 7 7 10 11 6 5 4 4 4 5 7 7 9 8 9 7 7 7 6
5 5 5 5 5 5 7 5 4 4 7 8 11 9 6 3 6 7 4 6 6 6 7 7 8 6 7 11 7 5 5 4 4 4 4 6 7 8 9 9 8 9 9 8
6 6 6 4 5 8 5 3 3 4 7 10 9 10 10 3 4 4 6 6 10 6 9 8 6 8 11 8 7 5 5 5 5 4 4 6 8 9 9 10 10 10 10 10
6 6 6 7 6 6 4 5 7 8 8 8 9 6 9 5 5 5 6 7 10 12 8 5 9 9 5 5 4 3 4 4 4 5 6 6 8 9 10 10 10 9 10 11
8 10 10 7 5 5 6 7 8 9 10 8 8 7 9 4 8 8 4 8 8 12 9 9 10 10 6 5 4 3 4 3 3 3 3 4 6 9 10 10 10 9 10 11
8 8 8 8 8 7 9 9 7 8 9 6 7 6 6 6 4 7 7 11 8 11 5 9 11 7 5 4 4 4 4 3 3 3 3 4 5 8 9 9 10 10 9 9
7 10 11 10 9 12 12 12 10 10 7 6 7 9 7 7 5 7 9 11 10 5 9 10 7 5 4 4 4 4 3 3 3 3 3 4 5 6 8 9 10 10 10 9
11 12 13 12 11 10 8 7 8 7 6 7 7 8 8 7 9 9 11 8 7 11 12 11 6 5 4 4 3 3 4 3 3 3 3 4 5 6 7 9 9 10 11 10
12 11 14 11 7 6 6 5 6 5 4 6 7 7 8 11 11 9 9 11 13 11 11 7 5 4 4 4 3 3 3 3 3 3 3 4 5 5 7 8 9 10 11 11
11 11 12 9 9 7 7 6 6 4 5 6 6 8 11 11 10 12 12 12 14 11 7 5 4 4 4 3 3 3 3 3 3 2 2 3 4 5 5 7 8 10 10 11
12 11 8 8 7 6 5 5 5 5 6 7 7 10 12 9 12 13 9 12 8 6 5 4 3 3 4 3 3 3 3 3 3 2 2 3 4 3 4 6 7 8 9 11